CAPE
657 528 494 778 900 688 626 587 533 500 550 461 450 552 387 334 335 362 340 232 271 244 225 258 221 196 237 400 212 158 248 448 792 1313 1529 1343 1291 1361 1015 1048 854 899
684 673 871 1015 1047 534 673 775 747 552 638 534 558 568 514 473 336 394 288 278 247 244 216 195 200 246 196 188 235 252 331 376 352 316 778 695 798 994 1026 1290 1126 1220
692 849 971 1113 859 830 855 718 640 569 501 494 452 460 479 482 391 280 297 267 190 177 200 196 244 224 173 139 174 235 326 289 224 212 207 193 212 278 530 785 1304 1250
897 1056 904 790 886 967 773 510 479 546 501 406 320 467 577 441 347 255 307 102 129 124 233 196 207 129 62 75 98 103 121 144 172 187 164 126 163 167 285 568 853 878
1278 1241 704 705 793 731 458 459 476 479 510 523 487 513 490 376 343 268 192 42 93 185 185 182 170 64 26 31 48 65 66 64 54 45 10 18 37 167 310 410 782 1172
958 739 546 574 425 285 288 431 410 472 409 433 407 327 280 294 290 218 92 53 32 74 89 154 164 39 18 30 27 29 8 3 5 0 0 0 0 35 120 349 973 1260
774 647 659 576 379 292 495 533 495 316 389 349 237 242 277 275 371 231 74 44 18 6 19 41 111 68 38 25 21 2 0 0 0 0 0 0 2 37 25 85 194 458
975 790 643 559 553 467 568 520 602 468 334 191 124 284 319 303 348 128 68 12 0 0 0 0 23 132 66 3 6 10 0 0 0 0 0 0 0 22 68 92 197 530
757 1061 658 546 488 465 409 241 508 404 224 186 153 325 267 241 209 60 33 10 0 0 0 0 0 69 57 16 4 0 0 0 0 0 0 0 0 3 18 69 131 289
1049 1121 910 562 305 374 410 339 438 405 239 126 75 162 203 203 138 53 66 16 0 0 0 0 0 10 13 8 0 0 0 0 0 0 0 0 0 0 13 45 97 160
873 563 870 544 437 557 591 522 506 383 230 107 97 32 176 116 112 154 143 16 12 0 0 0 0 0 0 0 0 0 0 0 0 0 0 0 2 0 8 42 59 82
631 556 643 891 469 471 559 514 511 361 260 196 122 11 123 120 225 97 99 46 6 0 0 0 0 0 0 0 0 2 1 1 5 10 7 1 0 0 4 7 31 57
613 651 820 1050 1496 484 458 393 282 317 163 198 120 54 137 30 44 124 18 47 0 0 0 0 0 0 0 3 10 11 12 9 9 14 7 10 14 11 10 10 7 13
474 696 749 870 924 836 514 372 408 389 176 134 71 80 49 0 3 36 13 27 0 0 0 0 0 0 1 9 7 13 27 43 34 38 39 70 112 95 116 109 69 20
614 792 637 541 672 787 726 415 338 310 171 71 40 97 7 2 0 0 0 0 1 0 0 0 0 5 2 2 4 6 23 40 54 52 94 155 255 273 236 221 195 257
373 335 416 380 485 533 518 560 363 269 96 21 8 7 0 0 0 0 0 60 34 10 13 43 28 387 0 0 5 422 211 97 148 167 175 279 233 396 246 235 300 254
295 246 253 250 308 280 452 454 396 372 375 298 77 11 8 0 0 0 0 13 62 236 230 158 385 214 0 0 0 0 507 340 147 212 204 270 298 434 566 356 520 456
283 216 230 212 218 74 96 47 23 25 46 130 250 252 162 149 96 29 13 17 15 39 114 111 421 43 0 0 0 0 0 432 498 463 497 510 507 462 546 659 580 655
265 258 186 215 147 120 0 0 1 3 13 33 78 151 155 114 63 123 297 271 250 153 165 237 238 0 0 0 0 0 0 195 348 579 694 666 630 680 597 489 519 627
39 68 165 154 68 28 23 2 5 12 5 45 114 148 126 163 117 248 226 162 173 198 511 408 196 0 0 0 0 0 0 25 304 316 806 836 646 605 668 577 596 636
12 19 16 28 16 1 10 2 3 4 0 19 84 282 250 203 199 281 204 126 126 162 252 234 108 10 0 0 0 0 0 0 176 658 745 1055 1015 897 647 824 823 674
13 22 21 15 9 3 12 16 3 12 7 1 25 83 148 282 256 303 221 258 229 288 185 252 108 46 28 0 2 44 34 44 143 517 793 586 421 320 83 486 845 968
2 14 5 15 10 17 16 18 55 2 6 5 19 38 82 218 238 239 255 266 299 99 98 207 106 46 26 0 44 48 43 59 167 420 420 310 432 498 608 865 734 717
9 1 22 12 3 4 11 24 9 113 347 265 25 35 103 143 178 208 179 129 111 84 90 120 139 96 61 49 41 51 38 49 134 262 348 480 521 616 681 628 511 352
6 3 5 4 3 4 3 0 0 0 12 44 173 224 124 113 77 143 80 95 74 66 95 116 98 87 77 63 59 65 65 62 69 116 357 336 204 343 431 491 250 222
2 2 1 0 1 1 0 4 0 1 2 0 40 113 109 7 7 17 35 54 50 3 8 8 7 2 9 50 3 51 56 61 48 4 332 154 102 36 76 66 37 0
Wind_Speed
22 23 16 13 17 18 17 20 21 21 20 20 18 18 19 20 21 21 24 22 21 20 19 19 18 16 16 17 16 13 17 16 15 16 17 17 18 18 19 20 17 15
23 21 14 13 14 17 20 21 22 21 20 19 18 19 20 22 22 23 24 23 20 19 17 17 16 17 16 17 16 16 19 18 18 18 19 19 19 18 18 18 19 19
21 17 15 16 18 21 22 22 22 21 20 20 20 21 22 22 23 24 24 22 20 18 17 16 17 16 17 19 17 19 20 19 20 20 19 20 19 18 19 18 16 18
19 23 27 26 24 23 22 22 22 22 20 20 20 21 23 23 23 24 23 21 21 18 17 18 18 18 nan nan nan 21 22 21 22 22 21 20 18 19 18 17 16 16
29 31 32 28 25 23 24 24 23 23 21 20 22 22 22 23 22 22 21 nan nan 17 17 18 18 nan nan nan nan nan nan nan nan nan nan nan nan 18 17 16 15 16
30 29 30 29 27 25 24 24 23 24 22 21 21 21 21 22 19 19 nan nan nan nan nan 18 19 nan nan nan nan nan nan nan nan nan nan nan nan nan 18 17 16 18
28 28 30 30 28 26 24 23 23 23 22 20 19 19 21 20 18 19 nan nan nan nan nan nan 20 nan nan nan nan nan nan nan nan nan nan nan nan nan nan nan 20 19
27 29 30 30 29 26 25 23 23 22 22 20 18 19 20 20 20 21 nan nan nan nan nan nan nan 20 nan nan nan nan nan nan nan nan nan nan nan nan nan nan 22 21
26 28 29 30 29 27 25 22 21 21 21 20 18 20 20 20 22 nan nan nan nan nan nan nan nan nan nan nan nan nan nan nan nan nan nan nan nan nan nan nan 24 24
28 30 30 27 27 26 26 24 23 22 22 20 nan 19 20 20 22 nan nan nan nan nan nan nan nan nan nan nan nan nan nan nan nan nan nan nan nan nan nan nan nan 27
28 30 25 23 24 26 27 26 24 24 23 20 nan nan 19 20 22 21 21 nan nan nan nan nan nan nan nan nan nan nan nan nan nan nan nan nan nan nan nan nan nan nan
29 26 20 19 21 25 26 26 25 24 24 22 20 nan 22 21 23 nan nan nan nan nan nan nan nan nan nan nan nan nan nan nan nan nan nan nan nan nan nan nan nan nan
26 27 27 27 25 24 26 25 24 24 24 25 23 nan 25 nan nan 25 nan nan nan nan nan nan nan nan nan nan nan nan nan nan nan nan nan nan nan nan nan nan nan nan
32 31 31 29 30 28 25 25 26 26 25 27 nan nan nan nan nan nan nan nan nan nan nan nan nan nan nan nan nan nan nan nan nan nan nan nan 25 nan 26 25 nan nan
33 33 32 32 31 31 29 25 26 26 25 nan nan nan nan nan nan nan nan nan nan nan nan nan nan nan nan nan nan nan nan nan nan nan nan 25 24 25 24 23 23 25
36 33 33 33 32 31 30 31 29 27 nan nan nan nan nan nan nan nan nan nan nan nan nan nan nan 28 nan nan nan 27 22 nan 22 22 22 24 24 24 23 22 23 25
36 33 29 26 27 28 28 30 33 33 33 32 nan nan nan nan nan nan nan nan nan 28 29 27 30 31 nan nan nan nan 27 23 24 23 23 24 24 23 23 23 24 25
35 34 30 27 26 nan nan nan nan nan nan 35 35 35 33 30 nan nan nan nan nan nan 28 29 33 nan nan nan nan nan nan 25 23 24 25 23 23 24 23 24 26 25
34 33 32 29 27 25 nan nan nan nan nan nan nan 34 34 34 nan 32 33 31 30 30 29 31 34 nan nan nan nan nan nan 24 22 22 23 23 23 23 23 23 25 25
nan nan 28 27 nan nan nan nan nan nan nan nan 28 30 34 35 35 34 33 32 31 32 31 35 36 nan nan nan nan nan nan nan 21 20 21 21 21 22 23 23 24 25
nan nan nan nan nan nan nan nan nan nan nan nan nan 24 28 30 31 30 28 28 28 28 31 34 34 nan nan nan nan nan nan nan 22 21 20 20 23 25 20 22 26 24
nan nan nan nan nan nan nan nan nan nan nan nan nan nan 24 24 24 23 22 23 23 23 29 29 29 nan nan nan nan nan nan nan 22 22 21 21 23 24 nan 18 25 26
nan nan nan nan nan nan nan nan nan nan nan nan nan nan nan 22 22 21 22 23 24 nan nan 28 26 nan nan nan nan nan nan nan 20 22 22 21 23 24 19 24 27 25
nan nan nan nan nan nan nan nan nan 24 23 20 nan nan 23 23 23 24 24 25 26 nan nan 26 25 nan nan nan nan nan nan nan 22 21 23 22 22 22 24 27 28 30
nan nan nan nan nan nan nan nan nan nan nan nan 23 24 27 25 nan 25 nan nan nan nan nan 28 nan nan nan nan nan nan nan nan nan 22 23 22 23 26 28 25 27 37
nan nan nan nan nan nan nan nan nan nan nan nan nan 27 28 nan nan nan nan nan nan nan nan nan nan nan nan nan nan nan nan nan nan nan 28 28 31 nan nan nan nan nan
Wind_Direction
261 256 258 255 262 263 265 261 256 256 253 253 254 258 264 265 270 268 266 266 265 262 258 256 251 252 252 251 254 254 261 262 259 265 268 268 267 271 277 282 276 271
266 263 255 262 261 264 261 262 261 260 257 256 257 261 263 267 270 269 268 266 263 257 253 252 254 256 257 258 256 255 263 265 267 265 266 267 267 268 269 272 278 279
265 264 278 280 270 268 266 265 263 257 253 249 256 259 264 267 270 270 268 264 257 255 253 253 256 256 255 257 261 265 269 272 271 273 270 266 265 265 263 262 266 271
284 283 279 275 270 269 267 266 261 253 248 254 261 261 261 266 268 272 270 261 255 254 253 256 257 259 nan nan nan 267 271 272 269 267 266 267 265 262 260 261 263 268
285 277 272 268 267 266 263 261 257 247 246 253 258 258 263 268 272 273 269 nan nan 253 254 257 258 nan nan nan nan nan nan nan nan nan nan nan nan 263 263 264 269 269
274 272 268 266 265 263 259 258 253 246 244 249 253 255 261 269 274 273 nan nan nan nan nan 258 258 nan nan nan nan nan nan nan nan nan nan nan nan nan 275 270 269 271
268 263 261 259 259 257 253 252 247 244 243 243 250 257 263 268 272 271 nan nan nan nan nan nan 262 nan nan nan nan nan nan nan nan nan nan nan nan nan nan nan 272 272
258 255 257 253 253 250 249 246 242 241 241 238 244 255 264 268 271 270 nan nan nan nan nan nan nan 266 nan nan nan nan nan nan nan nan nan nan nan nan nan nan 266 270
243 252 253 255 250 247 245 247 245 244 244 240 244 252 260 263 266 nan nan nan nan nan nan nan nan nan nan nan nan nan nan nan nan nan nan nan nan nan nan nan 270 268
231 240 253 251 254 248 252 250 249 249 248 246 nan 249 257 261 266 nan nan nan nan nan nan nan nan nan nan nan nan nan nan nan nan nan nan nan nan nan nan nan nan 272
230 231 231 255 255 256 258 257 255 253 252 251 nan nan 258 263 266 268 271 nan nan nan nan nan nan nan nan nan nan nan nan nan nan nan nan nan nan nan nan nan nan nan
251 257 233 228 250 254 259 257 254 254 255 253 254 nan 259 262 265 nan nan nan nan nan nan nan nan nan nan nan nan nan nan nan nan nan nan nan nan nan nan nan nan nan
260 257 249 231 232 247 251 253 253 254 257 258 258 nan 260 nan nan 264 nan nan nan nan nan nan nan nan nan nan nan nan nan nan nan nan nan nan nan nan nan nan nan nan
250 248 244 240 238 246 254 253 254 253 254 256 nan nan nan nan nan nan nan nan nan nan nan nan nan nan nan nan nan nan nan nan nan nan nan nan 273 nan 271 269 nan nan
256 245 242 242 244 248 250 255 258 256 257 nan nan nan nan nan nan nan nan nan nan nan nan nan nan nan nan nan nan nan nan nan nan nan nan 278 276 273 271 268 271 271
252 247 244 243 243 246 247 245 249 254 nan nan nan nan nan nan nan nan nan nan nan nan nan nan nan 254 nan nan nan 242 258 nan 274 279 282 281 277 275 271 272 274 278
250 249 249 252 249 248 249 249 247 246 246 249 nan nan nan nan nan nan nan nan nan 258 257 258 255 248 nan nan nan nan 239 262 280 281 282 280 277 273 273 274 278 279
244 247 249 252 256 nan nan nan nan nan nan 248 252 254 255 254 nan nan nan nan nan nan 259 257 253 nan nan nan nan nan nan 251 263 275 277 275 274 272 271 274 276 278
243 247 248 249 250 249 nan nan nan nan nan nan nan 254 257 258 nan 252 248 247 248 251 253 253 253 nan nan nan nan nan nan 242 258 264 269 269 265 266 265 270 274 279
nan nan 250 251 nan nan nan nan nan nan nan nan 254 255 258 258 258 256 254 255 256 256 249 245 244 nan nan nan nan nan nan nan 249 250 253 257 261 268 271 270 274 275
nan nan nan nan nan nan nan nan nan nan nan nan nan 264 264 262 258 256 256 259 258 256 254 249 244 nan nan nan nan nan nan nan 247 248 254 257 252 245 252 271 269 271
nan nan nan nan nan nan nan nan nan nan nan nan nan nan 266 262 259 259 263 264 262 258 256 254 250 nan nan nan nan nan nan nan 257 259 261 264 263 263 nan 266 274 273
nan nan nan nan nan nan nan nan nan nan nan nan nan nan nan 272 273 272 269 265 259 nan nan 257 256 nan nan nan nan nan nan nan 267 271 272 272 262 265 274 272 271 274
nan nan nan nan nan nan nan nan nan 251 252 258 nan nan 276 276 277 272 263 257 254 nan nan 261 259 nan nan nan nan nan nan nan 264 270 270 262 270 272 269 267 266 265
nan nan nan nan nan nan nan nan nan nan nan nan 253 260 271 271 nan 269 nan nan nan nan nan 257 nan nan nan nan nan nan nan nan nan 260 271 274 266 264 263 265 260 261
nan nan nan nan nan nan nan nan nan nan nan nan nan 261 262 nan nan nan nan nan nan nan nan nan nan nan nan nan nan nan nan nan nan nan 259 258 257 nan nan nan nan nan